Regional Weather Roundup
Issued by NWS

Home | Current Version | Previous Version | Graphics & Text | Print | Product List | Glossary On
Versions: 1 2 3 4 5 6 7 8 9 10 11 12 13 14 15 16 17 18 19 20 21 22 23 24 25 26 27 28 29 30 31 32 33 34 35 36 37 38 39 40 41 42 43 44 45 46 47 48 49 50
000
ASUS43 KLSX 252307
RWRMO

WEATHER SUMMARY FOR MISSOURI
NATIONAL WEATHER SERVICE SPRINGFIELD MO
500 PM CST THU DEC 25 2014

NOTE: "FAIR" INDICATES FEW OR NO CLOUDS BELOW 12,000 FEET WITH NO
       SIGNIFICANT WEATHER AND/OR OBSTRUCTIONS TO VISIBILITY.
       CURRENT SKY AND/OR WEATHER CONDITIONS ARE NOT AVAILABLE FOR
       CHILLICOTHE AND FARMINGTON.

MOZ001>031-035>038-043-044-053-054-260000-
...NORTHERN AND WESTERN MISSOURI...

CITY           SKY/WX    TMP DP  RH WIND       PRES   REMARKS
KANSAS CTY INT CLOUDY    50  29  44 S25G31    29.69R
KANSAS C DTWN  CLOUDY    53  28  38 S14G22    29.71R
LEE`S SUMMIT   MOCLDY    51  27  39 S18G32    29.71F
ST JOSEPH      CLOUDY    51  31  46 S15G25    29.69R
CHILLICOTHE      N/A     50  32  50 SE13G21   29.75F
KIRKSVILLE     CLEAR     44  31  60 SE13      29.79F

$$
MOZ066>068-077>081-088>096-101>105-260000-
...SOUTHWEST MISSOURI...

CITY           SKY/WX    TMP DP  RH WIND       PRES   REMARKS
SPRINGFIELD    MOCLDY    50  27  40 S17       29.86S
JOPLIN         CLOUDY    53  26  35 S21G26    29.82R

$$
MOZ032>034-039>042-045>050-055>058-069>072-260000-
...CENTRAL MISSOURI...

CITY           SKY/WX    TMP DP  RH WIND       PRES   REMARKS
COLUMBIA       CLEAR     48  29  47 S18       29.85F
JEFFERSON CITY PTCLDY    50  28  42 SE9       29.88F
ROLLA          CLEAR     45  30  55 S12       29.90F
SEDALIA        MOCLDY    50  30  46 S17       29.80F
WHITEMAN AFB   CLOUDY    50  31  48 S15       29.76F
WARRENSBURG    PTCLDY    50  30  46 SE15      29.76S
OSAGE BEACH    PTCLDY    50  27  40 S12G21    29.88S

$$
MOZ051-052-059>065-260000-
...EAST CENTRAL MISSOURI...

CITY           SKY/WX    TMP DP  RH WIND       PRES   REMARKS
ST LOUIS INTL  MOCLDY    50  32  50 S10G24    29.98R
SPIRIT OF STL  CLEAR     49  29  46 S7        29.96R
ST CHARLES     CLEAR     46  35  65 SE13      29.96S

$$
MOZ072>076-082>087-097>100-106>115-260000-
...SOUTH CENTRAL AND SOUTHEAST MISSOURI...

CITY           SKY/WX    TMP DP  RH WIND       PRES   REMARKS
CAPE GIRARDEAU CLEAR     46  37  71 S8        30.08F
FARMINGTON     PTCLDY    45  34  65 SE13      30.01F
POPLAR BLUFF   PTCLDY    47  36  65 S10       30.06S
WEST PLAINS    PTCLDY    48  28  46 S10       29.98S

$$


USA.gov is the U.S. government's official web portal to all federal, state and local government web resources and services.